Weather in Xiangfan

China     32°03′46″N   112°08′20″E
temp.,
°C
wind,
m/s
gust,
m/s
humid.,
%
clouds,
%
prec.,
mm/h
press.,
hPa
HPBL,
m
17 april, sat
sat1723:00+17s335878 0.0 101923
02:00+15s2274100 0.0 101846
05:00+14ne5125390 0.0 1021301
08:00+14n4750100 0.0 1025281
11:00+19ne4631100 0.0 10261034
14:00+19ne4429100 0.0 10241187
17:00+19ene2344100 0.0 1021293
20:00+15se2246100 0.0 102230
18 april, sun
sun1823:00+15se2245100 0.0 102329
02:00+14ese2248100 0.0 102123
05:00+12e1152100 0.0 102012
08:00+15sse115183 0.0 1021174
11:00+18s3446100 0.0 1021667
14:00+16sse4759100 0.0 1019310
17:00+15s4867100 0.0 1017257
20:00+14sse4966100 0.0 1018282
19 april, mon
mon1923:00+13sse487429 0.0 1018180
02:00+11sse49850 0.0 1016181
05:00+10sse36920 0.0 1016132
08:00+13s45800 0.0 1017345
11:00+19s456210 0.0 10161001
14:00+22sse565559 0.0 10131479
17:00+21sse666087 0.0 10111325
20:00+17sse5117435 0.0 1013328
20 april, tue
tue2023:00+17sse4107691 0.0 1014350
02:00+16sse4882100 0.1 1013331
05:00+15sse4890100 0.0 1012331
08:00+16se378781 0.1 1013389
11:00+17se4682100 0.2 1014545
14:00+16se3589100 0.8 1012403
17:00+16ese2495100 2.4 1011323
20:00+16ese1297100 4.4 1012122
21 april, wed
wed2123:00+16ene1198100 1.2 101368
02:00+15nne2298100 1.3 1012129
05:00+14n3597100 0.1 1012262
08:00+14nnw3596100 0.4 1014298
11:00+15n459099 0.1 1014494
14:00+18nne447992 0.1 1012744
17:00+18nne458098 0.0 1011669
20:00+16nne478598 0.1 1013369